Theta_e
312 313 313 313 313 311 311 313 314 313 312 312 311 312 311 311 312 311 312 310 310 316 320 323 326 325 326 326 326 329 329 329 329 329 330 331 335 338 340 341 341 341 341 341 340 341 342 342 341 342 341 339 339 339 338 336 335 332 330 332 332 332 335 336 336 336 336 336 335 334 333 333 333 334 332 328 324 324 326 328 330 331 330 329 328 329
312 314 314 313 312 311 311 314 315 312 311 312 311 311 310 310 311 311 311 310 309 317 321 323 325 324 325 326 327 329 329 328 328 329 330 330 331 333 335 337 339 340 340 341 341 342 342 342 342 342 341 341 341 340 339 337 335 333 331 330 330 330 335 337 336 336 337 336 336 335 334 335 334 334 334 332 329 326 326 328 329 329 328 328 328 328
313 314 314 311 310 310 310 311 314 313 313 312 311 311 311 310 311 311 312 311 310 316 321 322 324 324 324 327 328 329 328 328 329 329 329 330 330 331 332 334 336 337 338 338 339 340 341 342 342 341 341 342 342 341 339 338 337 337 335 333 332 332 335 337 336 336 336 336 335 335 334 335 335 334 331 331 332 330 327 327 329 329 329 329 329 329
313 314 312 309 308 310 310 310 313 313 312 313 311 311 311 310 311 313 313 311 310 315 321 324 325 324 324 326 327 329 329 328 328 329 329 330 330 330 331 331 332 333 334 335 335 337 338 339 340 339 339 340 341 340 339 339 338 338 337 335 333 333 334 335 335 334 333 333 334 334 334 334 335 334 332 331 332 332 329 328 328 329 329 330 330 330
313 313 310 308 308 311 311 310 313 313 311 312 313 311 312 311 312 313 313 312 312 316 320 321 324 325 324 326 327 328 329 328 328 328 328 329 329 329 328 327 328 329 330 332 332 333 334 336 337 336 337 337 338 339 339 340 339 338 338 336 335 334 334 333 331 330 330 331 333 333 334 334 334 334 334 333 332 330 329 330 330 329 329 329 331 332
312 311 309 308 308 310 311 310 311 312 311 312 312 311 312 313 313 313 313 313 314 317 316 314 319 324 324 325 327 327 328 328 328 328 328 327 327 326 325 324 325 326 327 329 330 332 332 333 333 334 335 335 335 337 338 339 339 339 338 338 337 335 333 331 330 330 330 330 332 332 332 333 334 335 334 333 332 329 328 329 330 330 330 329 330 332
311 309 309 309 309 309 310 310 310 312 312 311 312 312 312 313 314 313 313 312 313 315 313 310 316 324 324 325 326 326 328 327 327 328 327 326 324 323 323 322 322 322 324 326 328 329 330 330 331 332 333 334 334 335 337 338 337 338 338 337 336 335 333 332 331 332 333 332 331 330 331 331 333 334 333 333 332 329 328 327 329 330 331 330 330 332
311 309 309 310 310 310 311 311 309 310 311 312 312 311 311 312 313 312 312 312 313 314 312 311 316 323 325 325 324 326 328 327 326 327 326 325 323 321 321 320 320 320 320 322 324 326 327 329 329 330 331 332 333 334 336 337 337 337 337 336 335 334 333 332 332 333 333 333 332 331 331 331 331 332 331 332 332 329 326 325 326 328 329 331 331 331
312 312 310 309 310 310 311 312 310 309 310 312 311 310 311 312 311 312 312 313 314 313 313 313 315 321 326 324 324 326 328 328 328 326 325 324 322 320 319 318 318 318 318 320 322 323 325 327 328 329 331 332 333 333 334 335 336 335 334 333 333 333 332 331 331 333 334 334 333 332 332 331 329 330 331 332 331 329 326 324 325 327 328 330 331 331
311 312 311 310 311 311 311 311 310 309 310 310 309 310 311 311 311 312 312 313 314 313 313 314 314 319 325 324 325 325 327 329 328 326 324 323 321 319 318 317 316 316 317 320 321 322 323 325 327 328 330 331 332 333 334 334 334 333 332 331 331 331 331 331 330 332 334 334 333 333 332 331 330 330 330 331 330 329 328 326 325 326 327 328 330 331
310 311 312 311 312 312 310 309 308 309 309 309 309 310 311 311 312 313 314 314 314 313 313 314 313 316 323 325 326 326 327 328 327 325 324 321 319 318 316 316 315 314 315 318 320 321 323 324 326 328 329 330 331 332 333 333 333 333 332 331 331 330 330 330 330 330 332 333 333 332 331 331 332 331 330 328 328 328 328 327 326 326 326 328 330 331
310 310 311 311 311 311 310 308 307 308 308 309 311 311 312 313 313 313 314 314 314 313 314 314 312 316 324 326 327 326 326 325 325 324 322 320 318 316 315 314 313 313 313 315 317 319 321 322 324 326 327 328 330 331 331 332 332 332 332 332 331 330 330 330 330 330 330 331 332 331 330 331 332 332 331 328 327 328 329 328 328 328 328 329 330 330
312 311 311 311 311 311 311 309 308 308 309 310 312 312 312 313 314 314 314 314 314 313 313 312 314 323 329 327 326 327 325 323 323 322 320 318 316 314 314 313 312 312 313 314 316 317 317 319 320 321 323 324 326 327 327 328 329 330 330 330 330 330 330 330 330 331 331 331 331 330 330 331 331 331 331 330 329 329 330 330 330 330 330 329 329 328
313 312 311 310 311 312 312 311 309 309 309 310 312 312 312 313 314 314 313 313 313 313 313 313 316 327 330 327 326 325 323 322 321 319 318 316 315 314 313 312 312 312 312 313 314 315 316 317 318 319 319 320 321 322 323 324 325 326 326 327 328 329 329 330 330 330 330 331 330 329 330 331 331 331 331 331 331 330 330 331 331 331 331 330 329 329
313 312 311 311 311 312 312 312 311 311 310 310 311 312 313 314 315 314 313 313 314 314 316 316 320 327 329 327 326 324 321 320 319 317 316 315 314 313 312 312 312 311 311 312 312 313 314 315 316 317 317 318 319 320 321 322 322 323 324 324 326 327 327 328 328 328 328 329 330 330 330 330 330 329 329 329 329 329 330 330 331 331 331 330 331 330
312 312 312 311 310 311 312 311 311 311 311 310 309 311 313 314 315 313 312 314 316 315 317 319 323 326 326 325 323 322 320 318 317 316 315 315 313 312 312 311 311 311 311 311 311 312 313 313 314 315 316 317 318 318 319 320 321 321 322 323 324 325 326 326 326 327 327 328 328 329 330 330 329 328 328 327 327 327 327 328 329 329 330 331 331 330
311 312 312 310 309 310 311 311 310 311 312 311 309 312 312 311 315 315 311 312 315 316 317 319 325 326 325 325 322 319 319 317 317 316 315 315 313 312 311 311 310 310 310 310 310 311 312 313 313 314 315 316 316 317 317 318 319 320 321 321 322 323 324 324 325 325 326 327 327 328 329 329 329 329 329 328 328 327 325 325 326 327 329 329 329 330
312 313 312 311 311 310 310 310 310 310 311 311 312 312 311 310 314 315 313 312 313 317 319 319 326 328 326 327 324 320 319 317 316 316 315 314 313 312 311 310 310 309 309 309 310 310 311 312 313 313 314 315 316 316 317 317 318 319 320 320 321 322 323 323 323 324 324 325 326 327 327 327 328 328 329 329 329 328 327 326 326 327 328 328 328 330
313 314 312 311 312 312 311 311 311 310 310 311 312 312 311 313 313 313 314 313 313 318 320 322 325 326 326 327 326 323 320 318 315 314 314 313 312 312 310 310 309 309 309 308 309 310 311 311 312 313 314 314 315 316 316 316 316 317 318 319 320 321 321 322 323 323 323 324 325 325 325 326 327 328 328 329 329 328 328 328 327 327 328 327 326 328
313 315 314 312 313 312 313 314 312 311 310 311 312 311 312 315 314 313 314 313 315 319 320 324 324 324 324 324 325 324 319 317 315 313 313 313 312 311 310 309 309 308 307 307 308 310 311 312 312 313 314 314 314 315 315 315 315 315 316 317 317 318 319 320 321 322 323 324 324 324 324 325 326 327 328 329 329 329 329 329 328 327 327 327 327 328
315 316 316 315 314 313 315 316 314 313 312 311 312 313 313 313 312 313 313 312 315 319 321 324 323 323 323 322 323 322 318 315 314 312 312 312 311 310 309 308 308 307 306 306 308 310 311 311 312 313 313 313 313 314 314 314 314 315 315 315 316 316 316 317 318 319 321 322 323 324 325 325 326 327 327 328 329 329 329 329 329 328 327 327 328 328
315 316 318 319 318 317 317 316 314 314 313 313 314 314 313 313 313 313 313 313 314 317 320 321 323 323 320 319 320 319 316 315 313 312 312 311 310 309 308 308 307 307 306 306 308 309 310 311 312 312 312 312 313 313 313 313 313 314 314 314 315 315 315 315 315 316 317 318 320 322 324 325 326 326 327 328 328 328 329 328 329 329 328 327 326 326
317 318 320 320 319 318 316 314 314 314 313 314 316 314 313 315 316 314 315 316 314 316 319 319 323 323 318 316 318 316 314 314 313 312 311 310 309 308 307 307 307 307 307 307 307 308 309 310 310 311 311 311 312 312 312 312 312 312 313 313 313 314 314 314 314 315 315 315 316 318 321 323 324 326 327 327 328 328 328 328 328 328 328 327 326 325
318 319 319 318 317 316 314 312 313 314 315 317 317 315 314 316 317 317 318 318 316 317 319 319 321 322 317 315 315 314 313 313 311 311 310 309 308 307 306 306 306 307 307 306 307 308 308 309 309 310 310 310 311 311 311 311 311 311 311 312 312 312 313 313 314 314 314 315 315 315 317 319 322 324 326 327 327 327 328 328 328 328 328 328 326 325
318 318 318 319 318 318 317 315 315 316 318 318 317 315 314 313 315 318 318 317 318 318 317 317 320 320 317 314 313 312 312 311 310 309 309 308 307 306 305 305 305 306 305 305 305 306 307 308 308 308 308 309 309 309 310 310 310 310 311 311 311 312 312 312 313 313 314 314 315 315 315 316 317 320 323 325 326 326 327 327 328 328 328 327 326 326
317 315 316 319 320 319 319 318 318 319 320 318 315 315 315 314 316 319 317 315 317 316 315 317 321 318 315 313 312 311 310 309 309 307 307 306 305 304 304 304 304 304 303 303 303 304 305 305 306 306 306 307 307 308 308 309 309 310 310 310 311 311 311 311 311 312 313 313 314 314 315 315 316 317 319 322 325 326 326 325 326 327 327 327 326 327
316 313 314 318 320 318 318 318 316 317 321 321 317 316 316 313 314 317 316 315 317 316 316 319 319 317 316 313 312 311 309 308 308 306 306 305 304 303 303 303 303 302 302 302 302 303 303 303 304 304 304 305 305 306 306 307 308 309 309 310 310 310 310 310 310 310 311 312 313 314 314 314 315 315 316 318 322 325 326 325 325 326 326 326 327 327
317 315 314 315 316 315 314 315 314 315 317 318 316 316 316 314 316 322 320 317 317 318 319 318 316 317 316 313 312 310 308 307 306 305 305 304 303 303 302 302 302 302 302 302 302 302 302 302 302 302 302 303 303 303 304 305 306 307 308 308 308 308 309 308 309 309 310 311 312 313 313 314 314 315 315 316 318 322 325 326 325 326 327 327 327 327
317 315 314 314 314 313 313 313 314 314 314 313 314 315 315 314 319 324 319 314 317 320 320 317 316 316 315 312 310 309 307 306 305 304 303 303 302 302 302 302 302 302 302 302 302 302 301 301 301 301 301 301 301 302 302 303 304 305 306 307 307 307 308 308 308 309 309 310 311 312 313 313 314 314 314 315 316 319 323 326 327 327 327 328 327 328
315 315 314 314 314 313 313 313 313 313 313 313 312 313 314 314 315 316 315 314 317 319 317 316 314 313 311 309 307 306 305 304 303 302 302 302 302 302 302 302 302 302 302 302 302 302 301 301 301 301 301 301 301 301 301 301 302 303 304 305 306 306 307 307 308 308 308 309 309 310 312 312 313 313 313 314 316 317 320 324 326 326 327 327 328 328
316 315 314 314 315 314 313 313 313 313 313 313 313 312 313 313 314 314 315 315 315 315 314 312 312 310 307 306 305 304 303 303 302 302 301 301 301 301 301 301 301 301 302 302 302 302 301 301 300 300 300 301 301 300 300 300 300 300 301 302 303 305 306 306 307 307 307 308 308 309 310 311 312 312 312 313 315 317 318 321 323 325 325 326 327 327
316 315 314 314 317 316 313 313 314 313 313 313 314 313 313 313 314 313 313 313 313 313 311 311 311 309 306 304 304 303 302 302 302 301 301 301 301 301 301 301 301 301 301 301 301 301 300 300 299 299 299 300 299 299 300 300 300 300 300 300 301 302 303 304 305 306 307 307 307 308 308 309 310 311 311 312 313 316 318 319 321 323 324 325 326 327
316 315 314 315 318 316 313 313 314 314 315 316 313 312 312 312 312 312 311 311 311 311 312 313 311 306 304 304 302 302 302 302 301 301 301 301 301 301 301 301 301 301 301 301 301 300 300 299 299 300 300 300 299 299 299 299 299 300 300 300 300 300 301 302 303 305 306 307 307 307 307 308 309 310 311 310 311 314 317 319 320 322 324 324 325 326
314 315 313 314 317 316 314 313 314 315 316 315 310 309 310 311 311 311 310 309 309 310 310 310 307 304 304 303 302 302 302 301 301 301 301 300 300 300 300 300 301 301 301 300 300 300 300 300 300 300 300 300 300 300 299 299 299 299 299 300 300 300 300 300 301 303 304 306 306 307 307 307 308 309 309 309 309 312 316 319 320 321 323 324 325 324
313 313 312 313 315 316 314 314 316 316 314 310 308 308 309 309 308 308 308 307 307 307 307 306 305 304 303 303 302 301 301 301 301 300 300 300 300 300 300 300 300 300 300 300 300 300 300 300 299 299 299 299 299 300 300 299 299 299 299 299 300 300 299 299 300 300 302 304 305 306 306 306 307 308 308 308 308 309 312 316 318 319 321 323 324 324
313 313 312 312 313 315 315 315 316 314 310 308 308 308 308 309 309 309 309 307 306 306 306 305 304 303 302 302 301 301 300 300 300 301 300 300 300 300 300 300 300 300 300 300 300 300 300 299 299 298 298 298 298 299 299 300 300 299 299 299 299 300 300 299 299 299 300 302 303 304 305 305 306 306 307 307 307 307 309 312 314 316 317 319 321 322
312 313 313 312 312 313 314 314 313 311 310 310 309 308 309 310 310 310 310 307 305 305 305 303 302 302 302 301 301 300 300 300 300 300 300 300 300 300 300 300 300 300 300 300 300 300 300 298 298 298 297 297 297 298 299 299 300 300 299 299 299 300 300 300 299 299 299 300 301 303 304 305 305 305 306 306 306 306 306 307 309 311 313 314 317 319
312 313 314 314 311 311 312 312 312 313 313 312 310 309 309 309 309 309 309 308 306 305 304 303 302 302 301 301 301 300 301 302 301 300 300 300 300 300 300 300 300 300 300 300 300 300 299 298 298 298 297 297 297 298 298 299 299 300 300 300 300 300 300 300 300 299 299 299 301 302 303 304 304 305 305 305 305 305 305 305 306 307 308 310 312 315
310 310 312 313 311 310 312 312 312 312 311 310 309 308 308 308 308 309 310 310 307 304 303 303 302 301 301 301 301 301 303 304 301 300 300 300 300 300 300 300 300 300 300 300 299 299 299 299 298 298 298 298 297 298 298 299 299 300 300 300 300 300 300 300 300 299 299 299 300 302 303 303 303 304 305 305 305 305 304 304 304 304 305 306 308 310
310 308 309 312 311 309 310 310 309 309 308 308 308 307 307 307 308 310 312 311 307 304 303 302 302 302 301 301 302 302 304 304 301 300 300 300 300 300 300 300 300 300 299 299 298 299 299 299 299 299 298 298 297 297 298 299 299 300 300 300 300 300 300 300 300 300 299 299 299 301 302 303 303 303 303 304 305 305 304 304 304 304 304 304 305 306
308 306 306 308 308 308 309 309 308 307 307 307 307 307 307 307 308 310 311 309 306 304 303 302 302 302 301 302 303 302 302 302 301 300 300 300 300 300 300 300 299 299 298 298 298 298 298 298 298 299 298 298 297 297 298 298 299 299 299 299 299 299 299 300 300 300 300 299 299 299 301 302 302 302 302 303 303 304 304 304 304 304 304 304 304 305
308 307 305 306 306 306 307 308 308 307 306 306 306 306 307 309 310 309 308 306 305 305 303 302 302 302 302 303 303 301 300 300 300 299 300 300 300 300 299 299 299 298 298 298 298 298 298 298 298 298 298 298 298 297 297 297 298 299 299 299 299 299 299 299 300 300 300 300 299 299 299 300 301 301 301 301 302 303 304 304 304 304 304 304 304 304
307 307 306 304 303 304 305 307 309 308 306 304 305 307 308 309 309 306 304 305 306 305 303 302 302 302 303 303 301 300 300 300 300 300 300 300 300 299 299 299 299 299 298 298 298 297 297 297 297 297 298 298 298 297 297 297 297 297 298 298 299 299 298 298 299 300 300 299 299 299 299 299 299 299 299 299 300 301 301 302 303 304 304 304 304 304
305 305 305 303 302 305 307 308 307 306 303 303 306 307 307 306 306 304 304 305 305 304 303 302 301 302 303 302 300 300 300 300 300 300 300 300 299 299 299 299 298 298 297 298 298 298 297 297 297 297 298 298 298 298 297 297 297 297 297 298 298 298 298 298 298 299 300 299 299 299 299 299 298 298 298 298 298 298 298 299 299 301 302 303 303 304
304 304 304 304 302 304 305 305 303 302 302 303 304 304 303 304 304 305 305 304 304 304 303 302 302 302 303 301 300 300 301 301 300 300 300 300 299 300 299 298 297 296 296 297 298 298 298 297 297 297 298 297 297 298 298 297 297 297 297 297 297 298 298 297 297 298 299 299 299 299 299 299 299 298 298 298 298 298 298 298 297 298 299 300 301 302
303 303 304 304 303 303 303 303 302 302 302 302 302 302 302 303 303 304 304 304 303 303 303 302 302 303 302 301 301 301 301 300 300 300 300 300 300 299 298 296 295 295 295 295 297 297 297 297 297 297 297 297 297 297 298 297 297 297 297 297 297 297 297 297 297 297 298 299 299 299 298 299 299 298 298 298 298 298 298 298 298 297 297 297 298 299
303 304 304 304 304 304 304 303 302 302 302 301 301 302 302 302 302 303 304 304 303 303 303 303 303 302 301 301 301 301 300 299 300 300 299 299 298 297 296 295 294 294 294 294 295 295 295 296 296 296 297 297 297 297 297 297 297 296 297 297 297 297 297 297 297 297 297 298 298 298 298 298 298 298 298 298 298 298 298 298 297 297 297 297 297 297
304 304 304 303 303 304 304 302 302 301 301 301 301 301 301 301 301 302 303 303 302 303 303 303 302 301 301 301 301 300 299 299 300 299 299 298 297 296 295 295 295 294 294 294 294 294 294 294 294 295 296 297 297 297 297 297 296 296 296 296 297 297 297 297 297 297 297 297 298 298 298 298 298 298 297 297 297 297 297 297 297 297 297 297 297 297
304 304 303 303 303 303 303 302 301 301 301 301 301 301 300 300 301 301 302 302 302 302 302 301 301 301 301 301 300 299 299 300 299 299 298 297 296 296 295 295 295 294 294 294 293 293 293 293 294 295 296 297 296 295 295 295 295 295 295 295 296 297 297 296 297 297 297 297 297 298 298 298 298 297 297 297 297 297 297 297 297 297 297 297 297 297
303 304 303 303 304 304 303 302 302 303 303 301 300 300 300 300 301 301 301 301 301 301 301 301 301 301 300 300 299 299 299 299 298 298 297 297 296 296 295 295 295 294 294 293 293 293 294 294 294 295 296 296 295 294 293 292 293 294 294 294 295 297 297 297 297 297 297 296 297 297 297 297 297 297 297 297 296 296 297 297 297 297 297 297 297 297
303 304 303 303 304 304 303 302 302 303 302 301 300 300 300 300 301 301 300 300 300 300 301 301 301 300 300 299 299 299 298 298 297 297 297 297 296 296 296 296 295 295 294 294 293 294 295 295 295 295 295 295 294 293 292 292 293 294 294 294 294 296 297 297 297 297 297 296 296 296 296 296 296 296 297 296 296 296 296 296 296 296 296 296 296 296
Wind_Speed
8 6 4 5 5 6 6 5 5 4 5 6 5 3 3 4 3 1 1 1 3 6 6 7 10 11 11 11 11 11 14 19 17 14 14 11 7 2 3 6 8 10 10 11 13 15 14 14 15 16 17 16 15 15 15 15 13 13 14 15 17 16 17 17 18 19 19 19 18 18 17 17 17 18 19 20 18 17 19 19 19 20 20 20 19 20
7 6 5 5 5 6 5 4 6 6 5 6 4 4 2 3 2 1 1 2 2 4 3 5 12 12 11 10 11 13 16 18 16 15 15 15 14 11 7 6 4 5 8 11 12 13 13 13 13 15 16 17 16 13 14 14 13 13 14 16 16 16 18 19 19 19 19 19 18 17 16 15 16 16 17 20 19 17 19 21 20 20 20 21 21 22
6 6 6 5 4 6 5 4 6 6 4 4 3 3 3 2 1 1 1 3 2 3 5 6 12 10 9 10 12 16 17 16 17 17 18 17 17 17 14 13 10 7 6 6 7 8 9 10 11 12 13 16 15 13 14 14 14 15 15 16 16 17 19 20 20 20 19 19 17 15 15 14 15 14 13 16 18 17 20 23 22 22 22 23 23 23
6 6 7 7 7 8 6 4 6 6 3 2 3 3 3 2 1 3 3 3 3 3 7 10 11 7 7 9 11 16 16 16 18 20 21 21 20 20 20 19 17 15 13 11 10 8 7 6 7 7 8 11 12 11 13 14 15 15 15 14 14 15 17 18 20 20 19 18 14 12 13 14 16 16 14 16 16 16 20 23 24 24 24 25 25 25
5 4 9 9 7 8 7 5 7 6 3 2 3 4 3 2 2 2 3 1 4 4 5 8 8 4 7 8 9 12 14 15 18 21 23 22 20 21 23 23 23 21 19 17 16 13 10 8 7 6 7 9 10 10 10 12 14 15 15 14 14 14 14 16 18 18 18 18 13 10 11 15 19 20 18 18 18 17 20 22 23 24 25 26 25 25
4 4 11 10 6 7 8 6 7 7 5 3 4 5 5 4 3 2 2 3 4 3 3 1 3 2 5 8 8 8 10 13 16 20 21 20 20 21 23 23 23 24 23 21 19 17 15 12 10 8 7 8 10 10 9 9 11 13 14 15 15 15 14 15 18 19 19 19 17 12 12 15 19 21 20 19 19 19 19 21 22 23 24 26 25 24
3 5 8 9 8 7 7 6 6 6 6 3 4 6 5 4 3 3 2 2 2 3 2 1 1 3 2 5 7 7 9 11 14 18 19 19 20 20 22 22 22 24 23 23 21 18 17 15 12 10 7 6 6 8 8 8 10 12 13 14 15 15 14 14 15 16 17 18 17 16 16 17 18 19 19 16 17 18 19 21 22 23 25 25 23 24
5 7 4 6 8 7 6 5 5 7 6 3 3 7 7 6 6 5 3 2 1 1 2 1 1 3 3 2 5 4 7 11 12 14 16 18 19 19 21 22 22 22 23 23 22 20 18 16 13 10 7 5 3 3 5 8 10 11 12 14 14 14 15 13 11 13 15 16 16 17 17 18 18 19 19 17 16 17 20 22 22 22 24 24 22 23
5 9 8 8 8 5 6 5 7 9 5 2 4 7 7 5 6 5 3 3 1 1 3 2 1 2 3 1 2 2 5 10 12 12 13 16 18 18 20 21 21 21 22 23 23 21 19 15 14 11 7 5 3 1 2 6 9 10 12 14 13 12 13 13 11 10 12 14 15 16 17 17 17 18 19 19 18 18 20 23 23 22 23 23 22 22
2 9 12 11 7 6 6 5 10 12 4 3 7 6 4 3 3 3 3 2 1 3 4 3 2 1 3 0 0 2 4 7 8 8 10 15 17 17 19 20 20 21 22 23 22 21 19 16 13 10 6 3 0 1 3 7 10 11 13 14 13 12 12 13 13 11 10 12 16 18 17 16 16 17 18 18 18 20 21 23 24 23 23 23 22 22
1 4 8 7 5 6 5 4 7 7 6 9 10 7 5 4 2 2 1 0 2 4 1 1 4 1 3 1 1 2 3 5 6 6 9 14 16 17 18 19 20 21 22 22 21 19 16 14 12 8 5 4 3 3 6 9 12 14 15 17 16 14 15 16 16 16 14 15 19 20 18 18 17 17 17 18 19 22 23 25 26 25 24 22 21 21
2 4 4 4 5 6 6 5 3 3 6 7 5 5 6 3 1 2 2 1 4 4 1 1 4 1 3 2 3 4 6 7 7 7 9 12 14 15 17 18 20 20 21 22 22 20 17 15 13 11 8 6 4 4 6 8 10 12 14 17 17 16 16 17 17 18 18 18 19 19 20 20 18 18 19 20 21 22 24 26 28 27 25 24 22 21
1 4 1 1 5 7 6 6 4 3 4 3 4 8 7 4 4 4 3 3 4 2 2 2 3 3 4 4 6 8 9 9 9 10 10 12 13 14 16 18 19 20 21 23 23 22 20 18 17 16 14 11 8 8 9 9 10 11 12 14 16 15 15 16 17 18 20 21 20 19 20 20 18 19 21 21 22 23 25 25 26 27 26 24 24 24
4 3 2 2 3 7 8 6 5 4 4 5 6 8 7 5 6 5 3 2 2 1 2 3 3 3 6 5 8 9 9 11 13 13 12 14 14 14 16 16 17 18 20 22 22 21 20 19 18 17 16 15 14 13 13 12 12 12 13 13 14 15 15 15 15 16 18 20 20 19 20 20 18 19 20 20 22 23 23 23 24 25 25 24 25 25
6 4 6 6 3 7 9 5 7 8 6 5 3 3 4 3 4 4 3 3 3 2 2 3 1 4 5 3 8 12 12 13 15 13 13 14 14 14 16 16 17 17 17 18 19 20 20 19 18 16 16 15 15 14 14 14 14 13 13 14 14 15 15 15 16 15 15 16 18 18 19 19 18 18 19 19 21 22 22 21 21 23 25 25 25 25
5 3 3 2 2 8 10 5 7 10 7 3 1 2 3 3 3 3 1 1 3 3 2 2 2 2 3 4 9 13 13 13 13 12 13 14 14 15 17 17 18 17 16 16 18 20 19 18 18 17 16 15 15 15 15 15 15 15 14 13 13 13 14 16 16 16 16 15 16 16 18 19 19 18 19 20 21 21 21 19 19 21 23 24 24 24
3 2 0 2 1 4 6 7 6 5 5 3 3 4 2 2 4 4 2 2 1 3 2 1 2 4 3 5 8 10 11 10 9 11 13 13 14 16 17 17 16 16 15 16 18 19 19 18 18 18 17 17 16 16 16 15 15 15 15 14 13 12 13 14 15 15 15 16 16 16 18 19 20 20 20 21 22 23 22 21 20 20 20 22 23 22
3 2 1 1 4 0 2 8 6 2 4 5 6 7 3 2 3 2 3 2 1 3 2 0 3 6 5 4 7 9 9 8 7 10 12 13 14 16 17 16 16 16 15 17 19 19 19 19 18 18 18 18 17 17 16 15 14 14 14 15 14 14 14 15 15 15 15 16 17 17 18 17 17 19 19 19 20 21 21 21 21 19 18 18 19 20
2 2 1 1 3 3 2 7 6 3 2 2 5 7 3 2 3 2 2 3 3 3 2 2 4 6 5 3 6 9 8 7 7 9 11 13 14 15 16 16 17 17 16 18 20 20 20 19 19 18 18 17 17 16 15 15 14 14 13 13 14 15 15 15 16 16 15 16 15 16 18 16 15 16 17 17 17 17 17 17 18 18 16 15 16 18
0 1 2 1 0 2 1 2 5 5 3 3 6 5 1 0 3 2 1 2 4 4 3 4 3 5 4 1 4 9 9 7 8 8 9 12 13 14 15 16 17 18 18 19 20 21 20 19 19 19 19 19 18 17 17 17 18 17 17 16 15 14 14 14 14 14 15 15 14 14 15 15 13 12 15 16 16 15 15 15 15 14 13 14 16 18
0 1 3 2 0 2 2 0 2 4 3 4 6 5 2 2 1 2 2 2 2 4 4 4 3 4 2 2 3 9 10 8 9 9 9 11 12 14 15 15 15 16 17 18 20 20 20 20 19 19 20 20 19 19 19 20 20 20 19 19 19 18 18 17 15 15 14 15 14 14 13 14 13 11 10 12 13 14 15 15 15 14 13 13 15 17
0 1 2 2 1 2 2 2 2 2 1 2 4 4 4 4 4 4 3 1 2 2 4 4 3 3 2 3 3 10 10 10 12 12 11 11 12 14 14 14 15 15 16 18 20 20 21 21 20 19 20 21 21 21 21 20 20 20 19 19 20 20 20 20 20 19 18 16 15 14 13 13 13 13 10 9 9 11 13 14 15 15 15 15 16 15
1 2 4 4 3 3 3 2 2 2 2 4 3 1 2 2 3 4 4 4 3 2 3 2 2 3 2 4 7 11 11 13 13 13 13 12 12 14 13 13 14 14 16 18 18 20 21 21 20 20 21 22 22 22 22 22 21 21 21 20 20 21 21 21 21 20 20 19 18 16 15 14 13 14 13 11 9 8 10 12 14 14 15 16 17 16
2 2 4 4 2 2 3 2 2 3 3 4 5 3 1 0 1 2 2 4 4 3 3 3 3 3 2 5 11 14 14 14 12 12 12 11 13 15 13 13 14 13 15 16 17 19 19 20 21 21 21 22 22 22 22 22 22 22 22 22 22 22 22 21 21 20 19 19 19 19 17 15 14 14 14 14 13 10 10 11 13 14 14 15 17 16
2 1 2 5 5 3 4 3 3 3 2 3 3 3 3 2 4 4 3 3 3 3 2 3 4 3 4 8 11 13 14 13 12 12 11 11 14 14 13 14 14 13 14 16 17 18 19 21 21 21 21 22 22 22 21 21 21 21 22 22 23 23 23 23 23 22 21 19 19 19 18 17 16 14 14 15 15 14 13 13 13 14 14 14 16 16
3 2 0 3 5 5 4 3 2 2 2 2 3 4 5 3 2 3 4 3 3 3 2 2 4 5 7 9 10 10 11 11 12 12 10 12 15 14 12 13 14 14 16 17 18 20 20 21 21 21 21 21 21 22 21 21 21 21 22 22 23 24 24 24 25 24 23 21 20 19 19 19 17 16 14 14 14 14 15 16 16 14 13 14 15 16
4 4 5 4 4 3 3 2 2 1 3 3 3 5 6 3 2 1 3 3 4 6 2 1 8 12 11 10 10 9 9 9 10 11 11 12 14 13 12 13 14 15 16 18 20 21 21 21 21 21 21 22 22 22 22 22 22 22 23 23 24 24 25 26 26 26 25 24 22 21 21 21 19 17 15 14 14 13 14 15 17 16 14 14 15 16
4 4 7 10 10 7 6 6 5 6 7 6 5 6 7 5 2 2 3 2 6 7 3 4 13 16 12 11 11 10 8 9 9 10 12 12 13 12 12 13 15 17 17 19 21 22 22 21 21 22 22 23 23 23 24 24 24 24 24 24 24 26 27 28 28 27 27 26 24 23 23 23 22 20 17 14 13 14 14 14 16 17 16 16 16 17
5 4 4 9 13 11 9 9 10 12 12 11 11 10 10 8 6 5 4 2 1 1 4 12 17 14 11 10 10 10 10 11 11 12 13 13 12 12 12 13 16 18 19 20 21 22 22 22 22 23 23 24 24 25 25 26 25 25 25 25 25 26 28 29 29 29 29 28 28 26 25 25 25 24 21 16 13 14 16 16 16 16 17 17 18 18
4 5 6 10 14 13 11 10 10 13 14 13 14 13 12 12 12 10 9 7 6 7 11 18 17 11 8 9 10 12 13 14 13 13 14 13 12 12 13 15 17 19 19 20 20 21 21 21 22 23 24 25 25 26 26 27 27 27 26 26 26 27 28 29 30 31 31 31 31 29 27 26 27 28 26 20 15 13 17 19 18 16 16 17 18 18
3 5 5 5 9 10 10 11 11 14 16 16 14 12 11 12 12 11 10 10 10 12 14 17 16 9 6 10 14 14 14 14 14 14 14 12 11 11 13 15 16 17 19 19 19 19 20 21 23 23 24 25 25 26 27 27 28 28 28 28 28 28 29 30 31 32 32 33 32 31 30 29 29 31 30 25 19 15 15 19 20 18 16 16 17 18
3 6 5 2 6 5 6 11 11 12 15 15 13 12 11 9 8 8 7 5 6 12 15 13 10 6 7 12 14 14 14 15 15 14 13 11 11 12 14 15 15 16 19 19 19 19 20 22 23 24 24 25 25 25 26 27 28 28 29 29 29 29 30 30 31 32 33 33 33 33 33 33 32 33 33 29 24 19 17 16 18 18 17 16 17 17
3 8 5 2 5 5 4 5 4 3 6 7 7 7 7 6 7 7 8 7 6 11 11 7 6 7 10 13 12 11 13 14 14 13 12 11 12 14 15 16 16 17 18 18 18 19 20 22 23 23 23 24 24 24 24 25 26 27 28 29 29 30 31 31 32 33 33 33 34 35 35 35 35 35 35 33 28 22 18 16 15 16 17 16 15 16
4 7 5 1 4 7 6 2 1 2 3 2 3 4 3 4 8 9 8 8 6 6 6 7 10 12 11 11 11 12 13 14 13 12 13 14 15 15 16 16 16 17 17 17 17 18 19 21 22 22 22 23 22 22 22 23 23 24 25 26 27 29 31 32 33 34 34 34 35 35 35 36 36 38 38 37 33 26 19 16 13 13 15 17 16 16
6 5 4 2 4 7 5 2 3 4 1 2 2 2 5 8 12 13 11 9 7 9 12 14 13 12 12 13 15 16 16 16 14 13 14 16 16 16 16 16 16 16 16 16 16 17 19 20 21 22 22 22 21 21 21 22 23 23 24 25 27 29 30 31 33 34 35 35 36 36 36 36 37 38 40 41 38 32 24 18 15 14 14 16 18 17
7 5 4 3 4 6 4 2 3 3 2 3 4 6 8 8 7 9 10 8 6 8 12 14 13 14 17 17 17 18 18 17 16 13 12 14 14 15 16 16 16 16 16 16 17 18 19 20 21 22 22 21 21 20 20 22 23 24 24 25 27 28 30 31 32 33 34 36 37 37 36 36 36 37 40 42 42 38 32 25 20 18 16 15 17 17
5 6 4 3 2 3 5 4 4 3 3 3 4 4 4 3 1 2 4 5 4 6 10 13 13 15 18 18 18 19 18 16 14 11 11 12 13 14 15 16 16 16 16 17 17 18 19 19 21 22 22 22 22 21 20 21 22 24 25 26 28 29 30 32 32 32 33 34 36 37 36 35 35 36 37 40 41 40 37 32 27 23 22 19 15 15
5 3 3 4 1 1 5 6 4 3 3 4 4 3 2 3 1 2 3 3 3 6 11 14 14 16 18 18 18 17 13 9 7 6 9 12 12 12 13 14 15 15 15 15 15 16 17 18 20 21 23 24 24 23 22 21 21 24 26 28 29 30 31 32 32 31 30 31 32 35 36 36 34 33 34 36 38 37 36 34 31 28 25 23 20 15
9 5 3 5 4 3 5 5 4 3 1 3 6 4 3 3 2 2 2 3 5 9 13 15 16 18 18 17 16 12 6 3 4 6 9 12 12 12 12 12 12 12 12 13 14 15 15 16 17 19 23 25 26 25 24 22 22 24 27 28 29 30 31 32 31 30 29 28 29 30 33 35 34 32 31 31 32 33 33 32 30 28 26 24 21 18
8 5 3 5 5 4 4 3 2 1 0 3 5 3 2 2 3 3 2 3 9 13 14 15 18 18 17 16 13 6 1 2 7 10 11 12 11 10 11 11 11 11 12 13 13 13 14 14 15 18 21 24 26 26 25 24 24 25 26 28 29 30 31 30 29 28 28 27 27 28 30 32 33 33 31 29 27 27 28 29 29 27 26 24 21 17
4 4 2 3 4 4 4 3 2 1 1 3 3 2 3 3 3 2 0 4 13 16 14 16 18 18 17 14 8 3 4 8 13 15 13 11 10 10 11 12 12 12 12 12 12 13 14 15 16 17 19 22 24 25 25 26 27 27 27 28 29 30 29 28 27 27 28 28 28 28 28 28 30 31 31 30 28 25 24 24 26 26 26 25 22 21
2 2 2 2 3 3 2 3 3 2 2 3 1 2 4 4 2 1 3 9 17 18 16 18 19 18 15 12 9 11 14 16 17 16 13 11 12 13 14 14 13 12 11 10 12 14 15 16 17 18 19 20 21 23 25 27 27 27 27 28 29 29 28 27 25 25 27 29 29 29 29 28 27 28 29 30 30 29 26 24 22 22 22 22 23 22
2 2 2 2 2 2 2 2 2 2 3 4 3 3 2 1 1 7 12 14 16 16 17 20 21 19 16 14 15 18 19 18 16 14 14 15 16 16 14 12 10 10 10 10 11 13 16 17 17 17 18 18 18 20 23 25 26 27 27 27 27 27 27 26 25 24 25 27 29 30 30 29 28 28 28 28 29 29 29 28 25 23 20 19 19 19
1 0 2 2 2 1 2 2 1 1 2 3 3 2 1 2 7 15 18 16 15 17 18 20 21 19 16 18 21 21 19 17 16 16 17 18 16 13 11 10 10 10 11 11 10 11 14 16 17 16 16 16 16 18 20 23 24 25 26 26 25 25 26 26 25 24 24 26 28 29 30 30 30 30 30 30 29 29 30 30 30 28 26 24 21 19
1 1 3 3 2 2 3 3 2 3 5 4 3 3 6 9 15 18 18 16 15 17 19 22 22 18 16 20 23 20 18 18 19 19 19 17 14 11 10 10 11 12 13 12 11 11 12 15 16 15 15 15 15 16 18 20 22 23 24 24 23 24 24 25 25 24 24 24 26 27 29 29 30 31 32 32 32 32 31 31 30 30 30 30 29 26
5 5 4 5 6 6 7 7 5 6 9 9 7 8 10 14 16 16 16 15 14 17 22 25 23 20 19 23 23 21 20 22 22 21 18 15 12 11 11 11 11 12 12 12 12 11 11 12 14 14 14 14 15 15 16 18 20 20 20 21 21 22 23 23 24 24 23 23 24 25 26 27 28 30 31 32 32 32 32 31 30 30 30 30 30 30
3 3 4 5 6 4 4 5 6 8 10 10 10 11 11 13 13 14 15 15 15 19 23 24 23 22 22 23 24 24 25 25 22 19 16 14 13 12 12 12 12 13 12 12 11 10 10 11 13 14 14 14 15 16 16 16 17 18 17 18 19 20 21 22 23 24 23 22 21 22 24 25 26 28 29 30 31 31 32 31 30 28 29 28 28 28
3 4 6 6 4 4 6 7 9 11 10 9 9 10 11 11 13 15 16 16 17 20 22 22 24 25 25 25 26 27 26 23 19 17 15 14 13 13 13 13 13 13 12 12 11 11 11 12 13 14 14 14 15 15 15 15 15 15 15 15 15 17 19 21 22 23 23 21 20 20 22 23 24 26 27 28 30 30 31 32 31 30 29 29 27 26
6 6 6 7 8 7 7 10 12 12 9 7 7 10 11 13 16 18 18 18 20 24 25 25 25 25 26 27 28 26 24 20 17 16 15 14 13 12 13 13 14 13 13 13 13 13 13 13 13 13 14 14 14 14 14 14 14 14 14 14 13 14 17 19 20 20 21 22 20 20 21 22 23 24 26 27 29 30 30 30 30 30 30 29 28 27
6 7 7 9 9 4 6 12 12 8 7 8 10 12 14 16 19 21 22 23 26 28 28 27 25 24 26 27 25 23 21 19 17 16 14 13 12 12 12 13 13 14 14 14 15 15 16 16 15 14 13 13 14 15 15 15 14 13 13 14 13 12 14 17 19 19 19 21 22 21 20 21 22 23 24 25 26 27 28 28 28 29 29 29 28 27
3 7 8 6 4 5 12 18 13 8 12 14 14 16 18 20 23 26 27 27 28 27 26 27 28 27 26 24 22 20 19 18 17 15 13 12 11 11 12 13 14 14 15 15 14 15 16 16 15 14 14 14 16 17 17 15 13 12 12 13 12 11 12 15 18 18 17 19 21 21 20 20 21 22 23 24 24 25 26 26 26 26 27 27 26 25
Wind_Direction
178 167 179 183 177 171 170 173 144 130 145 128 125 132 126 152 155 191 241 41 86 83 62 77 80 58 41 33 29 39 49 46 39 37 41 42 47 51 243 245 254 264 274 281 279 278 279 277 269 262 261 264 267 273 285 290 290 284 267 280 302 292 274 272 273 274 274 275 274 274 274 271 270 273 271 263 253 250 253 251 243 238 238 239 240 241
181 184 185 182 174 162 158 150 117 115 126 118 129 123 127 178 148 153 45 22 59 106 117 98 80 62 47 45 40 47 53 48 43 44 46 46 46 41 26 9 336 298 287 283 285 284 284 283 275 268 265 269 279 286 289 285 278 276 272 279 289 280 270 270 270 271 271 272 274 275 280 278 274 279 282 272 259 252 255 255 249 243 242 242 241 243
180 192 185 170 143 109 100 123 120 118 122 114 131 131 157 171 125 199 74 24 21 114 153 117 83 69 53 54 52 53 56 55 54 55 55 54 52 47 40 34 29 16 354 327 317 304 290 285 276 271 271 273 282 287 283 279 273 270 275 284 285 277 275 276 276 278 279 279 281 283 288 290 283 280 282 273 261 254 253 252 251 248 247 246 244 245
176 192 176 154 141 119 101 127 121 111 118 118 147 166 168 147 166 175 119 39 18 81 149 126 93 74 57 57 57 58 61 60 60 61 59 58 57 55 54 51 47 42 35 27 20 6 342 316 299 294 293 288 288 287 282 281 280 277 277 282 287 285 284 287 289 290 289 286 287 287 284 286 282 276 272 264 257 256 253 249 249 248 248 250 250 249
158 156 149 146 158 142 123 138 140 136 158 164 183 184 165 174 215 147 116 115 60 66 148 130 100 67 39 46 54 58 63 61 61 63 59 57 56 56 55 53 53 54 53 52 50 44 34 20 4 345 330 320 312 305 293 285 285 286 287 288 292 296 295 295 294 292 291 286 281 277 271 271 273 274 271 262 258 261 260 256 253 251 251 254 256 255
159 133 145 150 165 149 133 153 171 164 164 185 218 207 185 183 193 125 123 146 123 139 202 171 120 94 32 41 53 54 61 60 61 62 58 54 52 52 51 49 51 55 59 62 62 64 63 56 45 26 358 338 327 319 307 297 291 286 285 286 293 301 299 295 294 292 291 289 286 287 280 272 273 277 276 269 269 274 274 273 268 261 256 255 258 259
135 138 154 156 156 153 150 163 185 177 163 184 211 196 179 164 171 163 161 179 166 162 154 292 221 141 73 45 38 41 66 65 61 62 58 54 51 49 51 48 47 50 54 61 64 68 71 69 64 54 40 15 345 325 308 288 279 277 277 281 286 290 287 286 292 292 289 290 293 295 290 280 276 280 282 279 280 282 282 279 273 268 263 258 257 259
135 147 146 149 152 161 174 174 188 179 163 175 187 170 162 168 188 183 180 213 229 122 112 64 246 136 117 54 8 20 75 69 63 62 56 54 51 49 51 48 45 45 47 54 60 65 69 71 70 67 66 66 44 328 295 270 266 269 266 268 275 280 282 285 293 295 290 290 290 289 290 287 281 282 285 284 281 279 280 279 274 269 268 266 264 261
146 173 168 154 157 178 188 176 170 171 172 200 170 162 160 167 182 172 190 210 104 206 177 142 218 142 112 32 346 31 85 72 65 64 57 52 48 46 48 46 44 43 44 50 53 57 61 66 69 69 69 80 102 118 279 269 268 266 263 266 271 275 283 291 299 309 307 303 301 296 296 297 292 285 282 282 281 278 279 280 275 268 268 273 274 270
170 195 179 159 162 188 190 167 168 175 181 147 135 125 108 89 97 126 196 194 122 244 201 152 259 168 114 64 143 107 97 82 69 66 64 55 48 44 44 43 40 38 42 48 49 51 53 55 58 60 52 43 39 254 270 271 269 266 269 275 276 277 285 289 293 310 323 319 312 305 299 299 298 293 289 286 283 279 277 277 274 269 269 274 277 274
27 185 180 175 177 176 161 139 167 171 137 129 127 112 101 85 69 89 58 102 193 233 192 71 299 259 140 175 181 137 87 87 81 67 62 53 45 39 40 40 37 34 35 40 44 46 49 50 51 50 41 19 339 293 275 272 273 274 278 282 285 287 287 287 289 298 309 312 310 306 301 298 298 299 298 293 285 280 278 278 279 278 276 278 279 275
34 140 172 202 179 142 116 108 114 119 126 134 132 134 129 111 119 128 96 182 214 212 111 36 310 323 136 169 177 138 88 84 81 67 63 57 46 38 39 39 36 34 32 34 37 37 35 36 38 37 37 28 353 315 300 293 290 289 289 290 295 296 292 291 295 297 298 298 299 299 296 295 295 295 293 290 286 283 282 282 283 284 283 283 282 275
197 174 204 225 177 158 130 114 109 128 167 172 147 158 161 150 164 175 173 192 210 200 65 329 304 47 89 133 151 132 104 93 82 72 76 73 60 48 43 41 38 35 34 35 35 32 28 26 25 22 21 15 1 346 336 327 316 310 307 302 303 306 303 300 298 296 293 290 289 288 286 285 287 289 287 285 284 284 285 284 282 282 285 287 284 275
198 241 243 189 189 179 156 140 145 161 186 180 164 174 174 158 166 174 170 177 197 159 57 321 295 108 114 134 136 122 107 97 86 80 82 80 72 62 54 49 46 41 39 40 37 34 32 29 26 22 18 13 6 358 348 342 336 329 327 321 315 315 314 309 301 297 294 290 290 287 281 279 280 280 280 278 278 280 284 285 282 281 284 288 286 279
184 222 199 174 177 176 167 168 161 152 167 177 162 175 172 164 170 167 163 163 159 130 72 358 329 132 134 132 124 119 106 92 86 81 80 79 74 68 61 52 49 45 41 41 40 37 34 32 31 29 25 20 14 7 358 352 348 343 343 340 334 328 324 320 314 313 312 302 295 290 282 277 276 276 276 272 271 274 277 279 280 282 284 287 288 285
182 212 201 149 158 171 169 167 144 141 158 181 145 148 178 175 134 110 88 85 117 117 69 24 34 89 101 97 109 113 103 91 86 81 77 74 70 64 56 48 45 44 41 39 40 38 33 30 29 28 26 22 17 13 6 0 354 351 350 345 337 329 325 324 322 322 321 313 305 297 288 282 278 279 281 278 275 277 278 277 278 280 283 285 284 283
166 172 153 56 124 185 173 152 144 156 153 146 178 179 166 104 109 116 107 43 71 143 111 30 104 118 123 114 113 112 106 100 94 84 78 73 67 60 54 48 44 43 41 39 40 38 34 32 31 28 26 21 18 15 11 4 357 353 350 345 339 332 325 322 319 317 315 310 306 300 294 289 284 283 285 284 282 281 280 281 283 282 282 283 281 279
177 136 45 130 142 145 163 136 109 46 131 143 178 168 124 74 85 110 127 101 142 145 110 43 154 156 166 145 134 129 116 107 93 80 77 68 61 57 52 47 44 42 40 37 37 38 36 34 34 32 29 25 21 18 15 9 2 356 349 344 342 338 334 330 326 324 318 311 307 303 298 295 291 288 287 287 286 283 279 280 284 284 283 283 280 277
189 122 45 299 143 98 111 139 116 60 54 122 153 145 135 163 160 149 139 152 156 129 121 152 158 182 187 161 157 149 128 113 92 72 67 60 53 53 49 44 41 38 35 33 35 38 37 35 36 35 33 31 29 26 23 21 18 12 4 356 349 342 340 337 334 330 324 316 311 306 302 299 296 294 292 292 292 290 286 281 280 280 282 283 277 272
254 161 128 346 57 110 87 166 160 138 68 69 127 129 49 153 162 160 124 150 151 136 151 151 167 205 182 174 195 155 131 124 103 75 66 62 57 55 49 42 39 36 33 33 36 39 40 40 40 38 38 39 39 39 35 34 32 28 23 18 10 2 355 348 340 334 329 325 319 314 311 308 303 297 296 297 295 294 293 289 285 281 281 282 273 267
7 176 138 97 341 187 148 355 205 160 121 132 149 148 120 81 103 129 81 40 132 144 155 150 177 194 137 348 210 143 127 123 109 95 85 73 66 62 53 46 42 38 35 36 40 43 44 45 45 42 44 46 46 45 41 37 34 30 27 24 20 17 15 10 4 354 345 336 328 322 317 312 305 298 296 299 299 297 295 293 293 288 279 274 269 265
236 113 124 111 82 106 102 28 316 242 178 149 159 162 145 125 139 154 148 91 72 123 152 153 165 155 48 354 134 127 121 119 113 107 99 85 75 68 58 52 50 44 41 42 44 47 48 49 48 45 45 46 45 44 41 38 35 32 30 27 23 22 20 19 18 13 5 354 341 331 320 309 300 294 290 292 299 300 294 289 290 287 277 268 264 260
147 90 92 93 86 99 113 90 66 102 116 90 77 115 138 129 149 170 180 162 117 102 127 123 131 129 33 33 106 114 113 115 114 110 104 94 82 74 65 59 56 49 46 45 45 48 49 49 50 49 47 45 43 42 40 39 36 33 30 27 24 22 20 19 19 18 15 7 357 346 332 319 306 295 288 286 291 300 297 289 283 281 275 267 264 258
157 87 92 103 100 108 128 122 74 71 95 81 55 39 31 25 105 131 153 143 136 138 141 137 141 147 102 84 101 108 109 109 108 105 105 100 87 77 70 64 59 53 50 49 48 49 50 49 49 48 46 45 43 40 39 37 35 32 29 26 24 21 18 17 16 15 15 12 6 359 349 337 324 309 297 289 287 287 290 288 279 274 271 267 265 259
169 35 114 126 121 112 123 140 129 90 64 67 59 18 357 60 104 107 100 114 138 156 170 169 152 144 135 116 106 106 105 100 95 95 99 101 90 79 70 67 64 59 54 51 50 50 48 48 47 45 45 44 42 40 38 35 33 31 28 25 24 22 20 18 17 14 13 11 9 5 0 353 341 326 311 298 290 282 277 278 275 269 265 261 260 256
119 36 39 145 141 145 143 140 133 117 92 73 59 16 13 45 99 114 121 149 172 161 165 175 139 128 133 128 116 111 108 100 93 91 91 91 87 81 74 71 68 63 57 54 53 51 49 48 47 45 44 42 41 39 36 34 32 31 30 27 26 24 21 19 17 15 13 12 11 8 5 360 352 340 323 307 297 287 275 271 269 262 253 250 251 249
103 56 42 59 91 114 105 73 17 75 108 90 42 16 16 359 326 77 138 171 157 144 146 147 139 142 145 138 129 121 111 104 101 98 92 85 83 84 79 74 70 65 60 58 57 55 52 50 48 46 45 44 42 39 37 34 32 31 30 29 26 22 19 18 17 16 15 14 13 12 9 4 359 352 336 315 298 288 276 267 262 257 249 245 247 247
106 72 52 57 62 61 68 72 60 72 86 79 58 33 22 6 352 96 115 118 131 143 160 151 146 146 147 142 133 124 114 107 103 98 92 87 86 89 83 76 73 68 63 61 59 58 55 51 50 48 46 45 43 41 39 36 34 32 30 27 24 21 18 17 16 15 16 16 15 13 12 8 4 359 349 329 301 282 271 263 255 251 248 243 243 245
99 74 76 81 73 63 69 81 82 85 85 73 64 52 37 34 47 75 75 42 66 148 143 147 147 140 134 134 124 115 114 108 101 97 96 93 91 89 85 79 73 68 65 63 60 58 56 52 50 49 47 46 44 41 39 36 34 33 30 27 25 23 22 20 17 16 17 18 18 17 13 10 7 3 357 344 315 283 268 262 255 245 242 241 241 244
87 89 111 100 78 61 64 81 89 92 88 72 61 57 55 59 64 77 87 73 64 87 118 132 130 113 109 116 107 106 109 105 101 97 92 91 89 87 85 79 73 70 67 65 61 58 55 53 50 48 47 46 44 43 40 38 36 33 31 29 27 25 25 23 20 19 18 18 19 19 17 13 10 6 2 352 333 298 270 261 256 247 241 241 242 245
75 132 154 112 80 62 67 84 89 91 89 77 64 57 60 67 67 73 82 78 81 100 114 118 113 99 96 105 104 106 107 103 99 92 86 87 88 86 83 76 71 71 70 67 63 59 55 53 50 47 47 45 43 42 41 39 38 35 33 31 29 27 26 25 23 21 20 18 17 18 18 16 12 10 7 359 345 321 290 269 260 252 246 245 244 246
78 134 174 151 90 75 89 100 97 96 91 76 57 48 48 60 69 65 61 66 109 124 121 117 117 120 123 115 108 104 102 99 95 92 91 89 85 83 82 77 72 72 72 69 65 60 56 53 49 46 45 44 42 40 39 38 37 36 34 32 31 29 28 26 25 24 21 19 16 16 17 16 14 12 11 6 355 340 322 298 274 258 251 250 248 248
111 136 155 147 99 116 158 126 90 114 111 79 42 28 33 63 87 76 55 53 101 132 133 132 134 132 131 125 114 105 103 99 94 96 99 94 88 86 85 83 80 77 75 73 68 63 57 53 50 48 46 44 41 39 36 35 35 34 34 33 32 31 30 29 27 25 23 20 17 16 17 17 15 14 13 11 5 353 341 323 295 269 259 259 259 259
106 122 127 91 104 142 182 226 303 196 151 81 350 333 353 88 95 85 64 50 66 105 109 105 120 130 130 126 119 112 107 100 98 101 101 99 97 93 89 88 86 83 80 76 69 62 57 55 53 51 48 45 42 40 36 35 35 34 33 33 32 32 31 30 29 27 24 21 19 17 17 17 17 15 14 14 11 5 354 340 323 297 276 268 267 269
115 101 94 64 100 136 175 226 176 165 128 3 347 39 97 107 98 87 72 55 67 104 109 106 116 124 118 114 116 114 110 106 102 97 96 99 99 95 92 90 86 85 81 74 68 61 59 58 53 49 46 44 41 39 37 35 35 34 33 33 32 32 32 30 29 28 26 23 21 18 16 17 17 16 16 16 15 12 6 356 345 332 309 285 276 272
121 110 92 68 93 134 155 171 156 144 86 83 101 108 113 113 105 91 73 51 62 105 116 115 116 117 115 116 119 118 115 108 96 86 87 95 97 96 93 89 85 83 79 73 69 65 62 57 52 48 45 42 39 37 36 36 35 35 34 33 32 32 31 30 30 29 27 26 24 21 18 17 18 18 17 17 17 16 13 9 0 355 346 317 289 272
108 116 109 78 62 136 123 94 95 131 152 133 124 139 137 111 96 107 85 63 66 104 120 121 119 121 123 125 127 126 120 106 89 78 84 94 96 95 93 91 88 85 82 79 74 69 65 59 54 51 46 41 38 33 32 35 36 36 35 33 32 31 30 30 29 28 27 27 26 24 22 20 20 20 19 19 19 19 18 16 11 7 3 349 319 282
63 90 132 116 74 126 114 104 119 161 198 190 166 161 129 97 114 126 105 98 111 129 134 129 125 130 133 134 138 140 132 109 87 88 101 103 103 100 97 94 92 88 84 81 76 72 68 62 55 50 45 41 37 34 33 35 36 37 35 33 31 30 29 29 28 26 25 26 27 26 26 26 24 22 21 22 23 23 22 21 20 17 12 5 350 320
55 47 87 106 116 148 129 127 162 180 204 169 158 144 104 114 157 162 142 153 157 154 149 140 136 140 143 144 149 156 158 123 116 128 123 116 112 108 102 96 92 87 81 78 75 70 66 62 56 48 43 39 36 36 37 38 38 38 35 31 30 29 29 28 26 24 24 25 26 27 28 30 29 26 24 24 26 27 28 28 28 27 25 20 10 350
45 28 57 99 120 137 116 107 151 170 32 147 149 131 102 122 171 184 186 162 161 163 158 147 144 147 148 148 151 159 262 118 141 147 138 125 117 109 103 99 95 92 87 81 75 67 62 59 53 44 39 38 36 37 40 41 41 39 35 31 29 29 28 27 25 25 25 25 28 30 30 31 32 31 29 27 26 29 34 37 38 37 37 36 32 24
43 25 49 99 109 111 104 104 114 100 153 155 132 110 134 150 171 191 350 135 154 160 158 149 147 148 148 148 146 123 89 117 135 141 138 128 120 113 107 103 99 94 87 77 67 62 59 57 51 43 40 39 38 38 40 42 41 39 35 32 31 29 26 24 24 26 27 27 29 32 32 32 32 33 33 32 30 30 33 37 40 42 45 47 47 48
73 60 65 87 99 98 87 98 109 109 164 166 115 109 147 160 170 124 100 135 150 154 154 151 149 146 145 142 131 124 122 125 132 135 134 130 123 117 112 104 96 89 80 70 64 60 56 53 49 45 42 41 39 37 39 41 40 38 35 32 30 28 25 22 22 24 27 29 30 32 33 33 32 33 33 34 34 35 34 33 33 35 39 45 49 52
72 95 105 102 109 100 90 119 138 136 156 161 142 133 164 237 148 124 123 135 147 149 149 152 152 150 145 135 129 130 129 130 132 133 133 130 124 116 107 93 79 67 58 55 58 57 51 46 44 42 42 41 39 37 38 40 40 38 35 32 28 26 24 23 23 23 25 28 31 32 33 33 33 33 33 32 34 37 38 37 35 34 36 38 42 47
24 73 151 177 213 201 130 146 161 72 119 151 152 141 152 165 150 142 136 137 145 149 149 150 153 156 150 137 134 135 132 131 132 131 131 128 120 109 92 73 61 53 47 46 51 51 45 41 40 40 41 41 37 35 36 38 39 38 36 32 28 25 25 25 24 24 25 28 30 32 33 33 34 34 34 33 34 35 37 37 37 38 40 40 39 41
50 93 108 116 124 86 81 101 117 90 97 111 117 108 118 137 150 151 144 138 142 151 155 153 151 154 149 139 137 135 130 130 132 131 130 124 111 97 78 64 57 51 46 47 51 47 39 37 38 39 40 39 36 33 33 34 36 36 35 32 30 27 26 26 25 26 27 28 31 33 32 33 34 35 34 33 33 34 35 35 35 36 39 40 40 41
99 94 80 100 121 103 70 74 97 100 95 100 109 115 127 140 149 150 144 140 143 155 162 159 154 152 148 141 137 133 131 132 132 130 125 113 99 88 76 67 61 55 53 54 52 45 38 37 38 39 40 39 35 32 30 30 32 32 31 29 29 29 28 27 27 27 27 28 32 34 33 32 33 34 33 31 31 32 33 33 33 34 35 37 38 39
118 90 86 113 141 137 86 84 101 104 105 109 114 121 130 140 147 148 145 142 146 155 160 158 153 150 146 140 136 135 134 134 131 125 116 104 96 88 77 69 63 58 55 53 47 42 36 33 33 35 37 37 34 31 29 27 28 29 27 25 27 28 28 28 28 27 26 27 30 32 31 31 31 31 30 29 30 31 31 32 32 32 32 33 33 35
145 129 117 113 113 107 111 118 109 100 104 112 117 124 131 133 139 142 139 136 140 148 151 148 144 143 141 137 137 138 136 132 126 118 112 105 98 87 75 69 64 58 54 50 47 44 39 35 36 38 40 40 37 32 27 24 24 24 22 21 23 26 27 27 28 27 25 26 29 31 31 31 30 29 29 28 29 31 32 33 33 33 33 32 31 31
139 137 128 118 111 100 108 127 122 103 96 109 120 125 130 130 131 131 129 129 133 136 137 136 136 137 138 139 139 138 135 130 122 117 114 108 98 86 74 68 63 58 56 53 51 50 48 47 48 50 49 45 39 31 26 22 19 17 15 15 17 23 27 27 28 29 28 28 31 33 33 33 32 32 31 31 30 31 32 33 34 34 34 34 32 31
134 138 134 130 135 144 156 158 152 125 117 141 140 132 133 134 130 127 127 130 132 133 134 135 134 135 137 138 137 135 131 128 123 120 117 110 99 88 77 68 62 59 57 55 54 56 56 57 60 62 56 46 35 26 20 17 13 10 10 9 11 20 27 27 28 30 31 31 32 33 35 37 37 36 35 34 32 31 31 32 32 33 34 34 32 31
171 165 155 138 131 155 163 168 165 124 120 139 141 135 136 135 131 129 131 132 133 135 137 137 136 137 139 139 136 132 128 127 124 121 117 111 102 89 76 67 62 59 57 56 57 58 59 61 64 62 52 37 25 17 14 13 11 9 9 9 11 21 29 28 27 31 33 32 32 33 36 40 40 38 37 36 35 33 32 31 30 30 30 30 30 29